Flight Track Log - Related Links

Times and Time Zones

All times are in EDT time to prevent confusion due to time zone crossing. See the N830QS flight status page for this flight to view local times or setup timezone preferences in your user account.

Time Position Orientation Groundspeed Altitude Reporting Facility
EDT Latitude Longitude Course Direction KTS MPH feet Rate Location/Type
03:08PM 28.2833 -81.4333 221° Southwest 155 178 800  Level Orlando TRACON
03:09PM 28.2667 -81.4500 221° Southwest 179 206 1,400 2,500 Climbing Orlando TRACON
03:10PM 28.2667 -81.5000 270° West 203 234 4,300 2,671 Climbing Orlando TRACON
03:11PM 28.2858 -81.6386 279° West 251 289 8,700 2,598 Climbing Jacksonville Center
03:12PM 28.3011 -81.7303 281° West 277 319 11,400 2,500 Climbing Jacksonville Center
03:13PM 28.3186 -81.8150 283° West 306 352 13,700 1,650 Climbing Jacksonville Center
03:14PM 28.3467 -81.9186 287° West 321 369 14,700 1,000 Climbing Jacksonville Center
03:15PM 28.3972 -82.0169 300° West 338 389 15,700 1,150 Climbing Jacksonville Center
03:16PM 28.4522 -82.1158 302° West 361 415 17,000 1,300 Climbing Jacksonville Center
03:17PM 28.5069 -82.2122 303° West 372 428 18,300 1,100 Climbing Jacksonville Center
03:18PM 28.5639 -82.3089 304° West 372 428 19,200 950 Climbing Jacksonville Center
03:19PM 28.6228 -82.4078 304° West 372 428 20,200 1,100 Climbing Jacksonville Center
03:20PM 28.7022 -82.4997 315° West 372 428 21,400 1,100 Climbing Jacksonville Center
03:21PM 28.7839 -82.5775 320° Northwest 372 428 22,400 1,000 Climbing Jacksonville Center
03:22PM 28.8633 -82.6578 319° Northwest 377 434 23,400 1,000 Climbing Jacksonville Center
03:23PM 28.9428 -82.7383 318° Northwest 377 434 24,400 900 Climbing Jacksonville Center
03:24PM 29.0161 -82.8094 320° Northwest 382 440 25,200 908 Climbing Jacksonville Center
03:25PM 29.0975 -82.8903 319° Northwest 387 445 26,200 1,000 Climbing Jacksonville Center
03:26PM 29.1789 -82.9733 318° Northwest 387 445 27,200 992 Climbing Jacksonville Center
03:27PM 29.2622 -83.0567 319° Northwest 387 445 28,200 1,000 Climbing Jacksonville Center
03:28PM 29.3414 -83.1381 318° Northwest 387 445 29,200 1,050 Climbing Jacksonville Center
03:29PM 29.4247 -83.2192 320° Northwest 387 445 30,300 1,050 Climbing Jacksonville Center
03:30PM 29.5039 -83.3031 317° Northwest 387 445 31,300 1,000 Climbing Jacksonville Center
03:31PM 29.5869 -83.3869 319° Northwest 387 445 32,300 1,000 Climbing Jacksonville Center
03:32PM 29.6681 -83.4686 319° Northwest 387 445 33,300 850 Climbing Jacksonville Center
03:33PM 29.7492 -83.5481 320° Northwest 387 445 34,000 350 Climbing Jacksonville Center
03:34PM 29.8133 -83.6514 306° West 387 445 34,000  Level Jacksonville Center
03:35PM 29.8564 -83.7692 293° West 387 445 34,000  Level Jacksonville Center
03:36PM 29.8953 -83.8869 291° West 392 451 34,000  Level Jacksonville Center
03:37PM 29.9361 -84.0022 292° West 397 457 34,000  Level Jacksonville Center
03:38PM 29.9767 -84.1228 291° West 390 449 34,000  Level Jacksonville Center
03:39PM 30.0172 -84.2358 293° West 390 449 34,000  Level Jacksonville Center
03:40PM 30.0578 -84.3542 292° West 390 449 34,000  Level Jacksonville Center
03:41PM 30.0981 -84.4747 291° West 390 449 34,000  Level Jacksonville Center
03:42PM 30.1383 -84.5883 292° West 390 449 34,000  Level Jacksonville Center
03:43PM 30.1764 -84.7067 290° West 390 449 34,000  Level Jacksonville Center
03:44PM 30.2164 -84.8228 292° West 390 449 34,000  Level Jacksonville Center
03:45PM 30.2564 -84.9392 292° West 390 449 34,000  Level Jacksonville Center
03:46PM 30.2942 -85.0553 291° West 390 449 34,000  Level Jacksonville Center
03:47PM 30.3339 -85.1692 292° West 390 449 34,000  Level Jacksonville Center
03:48PM 30.3733 -85.2883 291° West 390 449 34,000  Level Jacksonville Center
03:49PM 30.4131 -85.4025 292° West 390 449 34,000  Level Jacksonville Center
03:50PM 30.4481 -85.5214 289° West 390 449 34,000  Level Jacksonville Center
03:51PM 30.4728 -85.6378 284° West 384 442 34,000  Level Jacksonville Center
03:52PM 30.4953 -85.7589 282° West 379 436 34,000  Level Jacksonville Center
03:53PM 30.5175 -85.8778 282° West 379 436 34,000  Level Jacksonville Center
03:54PM 30.5419 -85.9942 284° West 374 430 34,000  Level Jacksonville Center
03:55PM 30.5642 -86.1108 283° West 374 430 34,000  Level Jacksonville Center
03:56PM 30.5881 -86.2297 283° West 374 430 34,000  Level Jacksonville Center
03:57PM 30.6122 -86.3489 283° West 374 430 34,000  Level Jacksonville Center
03:58PM 30.6339 -86.4703 282° West 379 436 34,000  Level Jacksonville Center
03:59PM 30.6575 -86.5872 283° West 374 430 34,000  Level Jacksonville Center
04:00PM 30.6792 -86.7064 282° West 374 430 34,000  Level Jacksonville Center
04:01PM 30.7006 -86.8256 282° West 374 430 34,000  Level Jacksonville Center
04:02PM 30.7261 -86.9425 284° West 374 430 34,000  Level Jacksonville Center
04:03PM 30.7475 -87.0594 282° West 374 430 34,000  Level Jacksonville Center
04:05PM 30.7872 -87.2650 283° West 372 428 34,000  Level Houston Center
04:06PM 30.8083 -87.3844 282° West 376 433 34,000  Level Houston Center
04:07PM 30.8311 -87.5031 283° West 376 433 34,000  Level Houston Center
04:08PM 30.8522 -87.6222 282° West 376 433 34,000  Level Houston Center
04:09PM 30.8769 -87.7617 282° West 376 433 34,000  Level Houston Center
04:10PM 30.8983 -87.8803 282° West 376 433 34,000  Level Houston Center
04:11PM 30.9189 -87.9981 282° West 374 430 34,000  Level Houston Center
04:12PM 30.9386 -88.1144 281° West 371 427 34,000  Level Houston Center
04:13PM 30.9569 -88.2322 280° West 371 427 34,000  Level Houston Center
04:14PM 30.9828 -88.3517 284° West 397 457 34,000  Level Houston Center
04:15PM 31.0069 -88.4928 281° West 374 430 34,000  Level Houston Center
04:16PM 31.0275 -88.6100 282° West 371 427 34,000  Level Houston Center
04:17PM 31.0461 -88.7183 281° West 370 426 34,000  Level Houston Center
04:18PM 31.0694 -88.8578 281° West 369 425 34,000  Level Houston Center
04:20PM 31.0883 -88.9594 282° West 370 426 34,000  Level Houston Center
04:21PM 31.1122 -89.0994 281° West 370 426 34,000  Level Houston Center
04:22PM 31.1322 -89.2156 281° West 370 426 34,000  Level Houston Center
04:23PM 31.1525 -89.3322 282° West 369 425 34,000  Level Houston Center
04:24PM 31.1717 -89.4486 281° West 368 423 34,000  Level Houston Center
04:25PM 31.1911 -89.5644 281° West 367 422 34,000  Level Houston Center
04:26PM 31.2147 -89.7047 281° West 368 423 34,000  Level Houston Center
04:27PM 31.2333 -89.8208 281° West 367 422 34,000  Level Houston Center
04:28PM 31.2517 -89.9358 281° West 364 419 34,000  Level Houston Center
04:29PM 31.2706 -90.0483 281° West 357 411 34,000  Level Houston Center
04:30PM 31.2903 -90.1644 281° West 364 419 34,000  Level Houston Center
04:31PM 31.3172 -90.3042 283° West 370 426 34,000  Level Houston Center
04:32PM 31.3506 -90.4189 289° West 374 430 34,000 -484 Level Houston Center
04:33PM 31.3839 -90.5342 289° West 375 432 33,000 -968 Descending Houston Center
04:34PM 31.4167 -90.6489 289° West 373 429 32,000 -480 Descending Houston Center
04:35PM 31.4478 -90.7644 288° West 374 430 32,000  Level Houston Center
04:36PM 31.4814 -90.8781 289° West 372 428 32,000  Level Houston Center
04:37PM 31.5197 -91.0150 288° West 370 426 32,000  Level Houston Center
04:38PM 31.5475 -91.1136 288° West 367 422 32,000  Level Houston Center
04:39PM 31.5858 -91.2503 288° West 368 423 32,000  Level Houston Center
04:40PM 31.6172 -91.3636 288° West 367 422 32,000  Level Houston Center
04:41PM 31.6489 -91.4775 288° West 368 423 32,000  Level Houston Center
04:42PM 31.6800 -91.5911 288° West 367 422 32,000  Level Houston Center
04:43PM 31.7117 -91.7061 288° West 370 426 32,000  Level Houston Center
04:44PM 31.7489 -91.8422 288° West 368 423 32,000  Level Houston Center
04:45PM 31.7803 -91.9553 288° West 366 421 32,000  Level Houston Center
04:46PM 31.8100 -92.0675 287° West 368 423 32,000  Level Houston Center
04:47PM 31.8406 -92.1803 288° West 365 420 32,000  Level Houston Center
04:49PM 31.8711 -92.2939 288° West 366 421 32,000  Level Houston Center
04:50PM 31.9083 -92.4300 288° West 365 420 32,000  Level Houston Center
04:51PM 31.9375 -92.5411 287° West 363 418 32,000  Level Houston Center
04:52PM 31.9658 -92.6528 287° West 360 414 32,000  Level Houston Center
04:53PM 31.9867 -92.7681 282° West 361 415 32,000  Level Houston Center
04:54PM 32.0039 -92.8842 280° West 362 417 32,000  Level Houston Center
04:55PM 32.0261 -93.0272 280° West 364 419 32,000  Level Houston Center
04:56PM 32.0422 -93.1422 279° West 361 415 32,000  Level Houston Center
04:57PM 32.0594 -93.2567 280° West 358 412 32,000  Level Houston Center
04:58PM 32.0761 -93.3714 280° West 357 411 32,000  Level Houston Center
04:59PM 32.0931 -93.4856 280° West 355 409 32,000  Level Houston Center
05:00PM 32.1128 -93.6222 280° West 353 406 32,000  Level Houston Center
05:01PM 32.1253 -93.6994 281° West 366 421 32,000  Level Fort Worth Center
05:02PM 32.1411 -93.8094 280° West 360 414 32,000 -100 Level Fort Worth Center
05:03PM 32.1567 -93.9239 279° West 355 409 31,800 -950 Descending Fort Worth Center
05:04PM 32.1725 -94.0411 279° West 355 409 30,100 -1,850 Descending Fort Worth Center
05:05PM 32.1878 -94.1536 279° West 355 409 28,100 -2,300 Descending Fort Worth Center
05:06PM 32.2014 -94.2708 278° West 355 409 25,500 -2,550 Descending Fort Worth Center
05:07PM 32.2189 -94.3881 280° West 360 414 23,000 -2,850 Descending Fort Worth Center
05:08PM 32.2319 -94.5031 278° West 360 414 19,800 -3,250 Descending Fort Worth Center
05:09PM 32.2511 -94.6106 282° West 360 414 16,500 -3,200 Descending Fort Worth Center
05:10PM 32.2594 -94.7061 276° West 330 380 13,400 -2,850 Descending Fort Worth Center
05:11PM 32.2742 -94.8039 280° West 312 359 10,800 -2,350 Descending Fort Worth Center
05:12PM 32.2819 -94.8872 276° West 284 327 8,700 -2,350 Descending Fort Worth Center
05:13PM 32.2983 -94.9803 282° West 279 321 6,100 -2,750 Descending Fort Worth Center
05:14PM 32.3106 -95.0733 279° West 284 327 3,200 -1,550 Descending Fort Worth Center
05:15PM 32.3142 -95.1592 273° West 272 313 3,000 -100 Descending Fort Worth Center
05:16PM 32.3242 -95.2450 278° West 272 313 3,000 4,000 Level Fort Worth Center
05:17PM 32.3319 -95.3408 276° West 272 313 11,000 4,000 Climbing Fort Worth Center
05:18PM 32.3375 -95.4267 274° West 272 313 11,000  Level Fort Worth Center
05:19PM 32.3453 -95.5125 276° West 272 313 11,000  Level Fort Worth Center
05:20PM 32.3506 -95.5986 274° West 272 313 11,000  Level Fort Worth Center

Login

Don't have an account? Register now (free) for customized features, flight alerts, and more!